ECHOSTAR 10

Last updated on Thu Nov 21 2024 00:02:40 GMT+0000 (Coordinated Universal Time)

1 28935U 06003A 24325.03748937 -.00000054 00000+0 00000+0 0 9991 2 28935 0.0338 55.4397 0001964 134.0973 133.3281 1.00272154 68707
UTC large
Height (km)
Speed (km/s)
/
Latitude / Longitude
Inclination (degrees)
Orbital Period (minutes)
Azimuth
Elevation
Range (km)
Doppler Factor

Next 0 passes for location: London (51.5072 / 0.1276)

Sorry there are no passes over London.